Station Historical Data
Daily Summary for May 13, 2012 Units:  Metric    English   Both
« Previous Day
Next Day »
Daily Weekly Monthly Yearly Custom
  High: Low: Average:
Temperature: 21 °C 16.2 °C 18.3 °C
Dew Point: 19.3 °C 15.2 °C 17.2 °C
Humidity: 94% 89% 93%
Wind Speed: 24.1km/h 0km/h 8.5km/h
Wind Gust: 24.1km/h - -
Wind- - South
Pressure: 1017.8 hPa 1012.8 hPa -
Precipitation: 25.15 mm    
Historical Graphs
 
 
Tabular Data for May 13, 2012
Time Temperature Dew Point Pressure Wind Wind Speed Wind Gust Humidity Rainfall Rate (Hourly) Conditions
00:00 17.7 °C 16.5 °C 1017.8 hPa NE 3.2 km/h 6.4 km/h 93% 0 mm
00:05 17.6 °C 16.4 °C 1017.8 hPa East 3.2 km/h 6.4 km/h 93% 0 mm
00:10 17.7 °C 16.5 °C 1017.8 hPa ENE 3.2 km/h 3.2 km/h 93% 0 mm
00:15 17.6 °C 16.4 °C 1017.8 hPa ESE 3.2 km/h 3.2 km/h 93% 0 mm
00:20 17.6 °C 16.4 °C 1017.8 hPa ESE 3.2 km/h 11.3 km/h 93% 0 mm
00:25 17.6 °C 16.4 °C 1017.8 hPa East 1.6 km/h 4.8 km/h 93% 0 mm
00:30 17.6 °C 16.4 °C 1017.8 hPa East 3.2 km/h 4.8 km/h 93% 6.6 mm
00:35 17.6 °C 16.4 °C 1017.5 hPa ESE 4.8 km/h 4.8 km/h 93% 2.29 mm
00:40 17.6 °C 16.7 °C 1017.5 hPa ESE 3.2 km/h 3.2 km/h 94% 2.29 mm
00:45 17.6 °C 16.6 °C 1017.5 hPa ESE 1.6 km/h 3.2 km/h 94% 1.52 mm
00:50 17.6 °C 16.6 °C 1017.5 hPa East 1.6 km/h 3.2 km/h 94% 1.02 mm
00:55 17.6 °C 16.6 °C 1017.5 hPa East 3.2 km/h 6.4 km/h 94% 12.95 mm
01:00 17.6 °C 16.6 °C 1017.2 hPa ENE 4.8 km/h 6.4 km/h 94% 5.59 mm
01:06 17.5 °C 16.6 °C 1017.2 hPa NNE 3.2 km/h 6.4 km/h 94% 6.6 mm
01:11 17.5 °C 16.6 °C 1017.2 hPa ENE 3.2 km/h 4.8 km/h 94% 4.83 mm
01:16 17.5 °C 16.6 °C 1017.2 hPa ENE 4.8 km/h 4.8 km/h 94% 7.87 mm
01:21 17.5 °C 16.6 °C 1017.2 hPa East 1.6 km/h 6.4 km/h 94% 7.62 mm
01:26 17.5 °C 16.6 °C 1017.2 hPa ENE 6.4 km/h 9.7 km/h 94% 6.1 mm
01:31 17.6 °C 16.6 °C 1017.2 hPa East 8 km/h 8 km/h 94% 2.79 mm
01:36 17.6 °C 16.6 °C 1016.8 hPa East 6.4 km/h 9.7 km/h 94% 4.06 mm
01:41 17.6 °C 16.6 °C 1017.2 hPa SE 8 km/h 11.3 km/h 94% 5.84 mm
01:46 17.6 °C 16.6 °C 1016.8 hPa East 12.9 km/h 14.5 km/h 94% 7.87 mm
01:51 17.6 °C 16.6 °C 1016.8 hPa SE 8 km/h 22.5 km/h 94% 2.03 mm
01:56 17.6 °C 16.7 °C 1016.8 hPa ESE 17.7 km/h 22.5 km/h 94% 1.78 mm
02:01 17.6 °C 16.7 °C 1016.5 hPa SE 12.9 km/h 19.3 km/h 94% 2.29 mm
02:02 17.6 °C 16.7 °C 1016.5 hPa East 11.3 km/h 16.1 km/h 94% 2.29 mm
02:07 17.6 °C 16.4 °C 1016.5 hPa SE 16.1 km/h 19.3 km/h 93% 2.79 mm
02:12 17.7 °C 16.5 °C 1016.5 hPa SSE 6.4 km/h 17.7 km/h 93% 1.52 mm
02:17 17.7 °C 16.5 °C 1016.5 hPa ESE 9.7 km/h 19.3 km/h 93% 1.02 mm
02:22 17.7 °C 16.5 °C 1016.5 hPa ESE 9.7 km/h 22.5 km/h 93% 0 mm
02:27 17.7 °C 16.5 °C 1016.1 hPa ESE 16.1 km/h 19.3 km/h 93% 0 mm
02:32 17.6 °C 16.4 °C 1016.1 hPa ESE 11.3 km/h 14.5 km/h 93% 0 mm
02:37 17.6 °C 16.4 °C 1016.1 hPa ESE 6.4 km/h 22.5 km/h 93% 0 mm
02:42 17.6 °C 16.4 °C 1016.1 hPa ESE 9.7 km/h 14.5 km/h 93% 0 mm
02:47 17.6 °C 16.4 °C 1016.1 hPa ESE 14.5 km/h 14.5 km/h 93% 0 mm
02:52 17.6 °C 16.4 °C 1016.1 hPa SE 11.3 km/h 17.7 km/h 93% 1.02 mm
02:53 17.6 °C 16.4 °C 1015.8 hPa SE 11.3 km/h 17.7 km/h 93% 1.02 mm
02:58 17.7 °C 16.5 °C 1015.8 hPa ESE 11.3 km/h 14.5 km/h 93% 1.02 mm
03:03 17.7 °C 16.5 °C 1015.8 hPa ESE 6.4 km/h 14.5 km/h 93% 1.02 mm
03:08 17.7 °C 16.5 °C 1015.8 hPa SE 14.5 km/h 14.5 km/h 93% 1.02 mm
03:13 17.6 °C 16.4 °C 1015.8 hPa ESE 9.7 km/h 11.3 km/h 93% 4.06 mm
03:18 17.6 °C 16.4 °C 1015.5 hPa SE 11.3 km/h 14.5 km/h 93% 1.78 mm
03:23 17.7 °C 16.5 °C 1015.5 hPa ESE 12.9 km/h 16.1 km/h 93% 1.27 mm
03:28 17.7 °C 16.5 °C 1015.5 hPa ESE 9.7 km/h 14.5 km/h 93% 0 mm
03:33 17.7 °C 16.5 °C 1015.5 hPa SE 9.7 km/h 16.1 km/h 93% 0 mm
03:38 17.7 °C 16.6 °C 1015.5 hPa SE 14.5 km/h 20.9 km/h 93% 0 mm
03:43 17.8 °C 16.6 °C 1015.1 hPa ESE 14.5 km/h 19.3 km/h 93% 0 mm
03:48 17.8 °C 16.6 °C 1015.1 hPa SE 11.3 km/h 17.7 km/h 93% 0 mm
03:53 17.8 °C 16.7 °C 1015.5 hPa SE 24.1 km/h 24.1 km/h 93% 0 mm
03:58 17.8 °C 16.7 °C 1015.5 hPa SE 9.7 km/h 19.3 km/h 93% 0 mm
04:03 17.8 °C 16.7 °C 1015.1 hPa ESE 11.3 km/h 16.1 km/h 93% 0 mm
04:08 17.8 °C 16.7 °C 1015.1 hPa ESE 17.7 km/h 17.7 km/h 93% 0 mm
04:13 17.8 °C 16.7 °C 1015.1 hPa ESE 9.7 km/h 16.1 km/h 93% 0 mm
04:18 17.8 °C 16.7 °C 1015.1 hPa ESE 16.1 km/h 16.1 km/h 93% 0 mm
04:23 17.8 °C 16.7 °C 1015.1 hPa ESE 17.7 km/h 19.3 km/h 93% 0 mm
04:28 17.8 °C 16.7 °C 1015.1 hPa SE 11.3 km/h 17.7 km/h 93% 0 mm
04:33 17.9 °C 16.7 °C 1015.1 hPa SE 11.3 km/h 19.3 km/h 93% 0 mm
04:39 17.9 °C 16.7 °C 1015.1 hPa SE 12.9 km/h 17.7 km/h 93% 0 mm
04:44 17.9 °C 16.7 °C 1015.1 hPa SE 11.3 km/h 19.3 km/h 93% 0 mm
04:49 17.9 °C 16.7 °C 1015.1 hPa SE 11.3 km/h 17.7 km/h 93% 0 mm
04:54 17.9 °C 16.7 °C 1015.1 hPa ESE 16.1 km/h 19.3 km/h 93% 0 mm
04:59 17.9 °C 16.7 °C 1014.8 hPa SE 12.9 km/h 16.1 km/h 93% 0 mm
05:04 17.9 °C 16.7 °C 1014.8 hPa ESE 12.9 km/h 19.3 km/h 93% 0 mm
05:09 17.9 °C 16.7 °C 1014.8 hPa SE 16.1 km/h 16.1 km/h 93% 0 mm
05:14 17.9 °C 16.7 °C 1014.8 hPa SE 8 km/h 19.3 km/h 93% 0 mm
05:19 17.9 °C 16.7 °C 1014.8 hPa SE 6.4 km/h 20.9 km/h 93% 0 mm
05:24 17.9 °C 16.7 °C 1014.8 hPa ESE 20.9 km/h 24.1 km/h 93% 0 mm
05:29 17.9 °C 16.7 °C 1014.8 hPa SE 12.9 km/h 16.1 km/h 93% 0 mm
05:34 17.9 °C 16.7 °C 1014.8 hPa SE 9.7 km/h 16.1 km/h 93% 0 mm
05:39 17.9 °C 16.7 °C 1014.8 hPa ESE 12.9 km/h 16.1 km/h 93% 0 mm
05:44 17.9 °C 16.7 °C 1014.8 hPa SE 11.3 km/h 16.1 km/h 93% 0 mm
05:49 17.9 °C 16.7 °C 1014.8 hPa ESE 12.9 km/h 17.7 km/h 93% 0 mm
05:54 17.9 °C 16.7 °C 1014.8 hPa SSE 12.9 km/h 19.3 km/h 93% 0 mm
05:59 17.9 °C 16.7 °C 1014.8 hPa SE 12.9 km/h 14.5 km/h 93% 0 mm
06:04 17.9 °C 16.7 °C 1014.8 hPa SE 14.5 km/h 24.1 km/h 93% 0 mm
06:09 17.9 °C 16.7 °C 1014.8 hPa SE 14.5 km/h 17.7 km/h 93% 1.78 mm
06:14 17.9 °C 16.7 °C 1014.8 hPa SE 12.9 km/h 17.7 km/h 93% 1.78 mm
06:19 17.8 °C 16.7 °C 1014.8 hPa SE 9.7 km/h 14.5 km/h 93% 2.54 mm
06:24 17.8 °C 16.7 °C 1014.8 hPa ESE 16.1 km/h 17.7 km/h 93% 3.3 mm
06:29 17.8 °C 16.7 °C 1014.8 hPa SE 8 km/h 19.3 km/h 93% 1.52 mm
06:34 17.8 °C 16.7 °C 1014.8 hPa ESE 12.9 km/h 17.7 km/h 93% 4.57 mm
06:39 17.8 °C 16.7 °C 1014.8 hPa SE 12.9 km/h 17.7 km/h 93% 8.89 mm
06:44 17.8 °C 16.7 °C 1014.8 hPa SE 9.7 km/h 19.3 km/h 93% 11.18 mm
06:50 17.8 °C 16.7 °C 1015.1 hPa SE 9.7 km/h 17.7 km/h 93% 4.32 mm
06:55 17.8 °C 16.7 °C 1015.1 hPa SSE 11.3 km/h 22.5 km/h 93% 3.3 mm
07:00 17.8 °C 16.7 °C 1015.1 hPa SSE 11.3 km/h 20.9 km/h 93% 6.35 mm
07:05 17.8 °C 16.7 °C 1015.1 hPa SSE 9.7 km/h 16.1 km/h 93% 4.83 mm
07:10 17.8 °C 16.6 °C 1015.1 hPa SE 14.5 km/h 24.1 km/h 93% 3.3 mm
07:15 17.8 °C 16.6 °C 1015.1 hPa ESE 11.3 km/h 20.9 km/h 93% 2.03 mm
07:20 17.8 °C 16.6 °C 1015.1 hPa SE 11.3 km/h 14.5 km/h 93% 1.27 mm
07:25 17.8 °C 16.7 °C 1015.1 hPa SE 11.3 km/h 19.3 km/h 93% 0 mm
07:30 17.8 °C 16.7 °C 1015.1 hPa SSE 16.1 km/h 20.9 km/h 93% 0 mm
07:35 17.8 °C 16.6 °C 1015.1 hPa SSE 9.7 km/h 17.7 km/h 93% 0 mm
07:40 17.8 °C 16.6 °C 1015.1 hPa SE 6.4 km/h 17.7 km/h 93% 0 mm
07:45 17.7 °C 16.6 °C 1015.1 hPa ESE 14.5 km/h 19.3 km/h 93% 6.35 mm
07:50 17.7 °C 16.6 °C 1015.5 hPa SE 16.1 km/h 20.9 km/h 93% 4.06 mm
07:55 17.7 °C 16.6 °C 1015.5 hPa SE 12.9 km/h 20.9 km/h 93% 6.1 mm
07:56 17.7 °C 16.6 °C 1015.5 hPa SSE 12.9 km/h 20.9 km/h 93% 6.1 mm
08:01 17.7 °C 16.6 °C 1015.5 hPa SSE 17.7 km/h 22.5 km/h 93% 6.1 mm
08:06 17.7 °C 16.6 °C 1015.5 hPa SE 11.3 km/h 19.3 km/h 93% 3.3 mm
08:11 17.7 °C 16.6 °C 1015.5 hPa SE 12.9 km/h 19.3 km/h 93% 4.57 mm
08:16 17.7 °C 16.6 °C 1015.1 hPa SE 9.7 km/h 16.1 km/h 93% 2.54 mm
08:21 17.8 °C 16.6 °C 1015.1 hPa SE 12.9 km/h 16.1 km/h 93% 1.78 mm
08:26 17.8 °C 16.6 °C 1015.1 hPa SE 6.4 km/h 17.7 km/h 93% 1.78 mm
08:31 17.8 °C 16.6 °C 1015.1 hPa SSE 8 km/h 17.7 km/h 93% 1.27 mm
08:36 17.8 °C 16.6 °C 1015.1 hPa SE 6.4 km/h 14.5 km/h 93% 0 mm
08:41 17.8 °C 16.7 °C 1015.5 hPa SE 12.9 km/h 19.3 km/h 93% 0 mm
08:46 17.8 °C 16.7 °C 1015.1 hPa SSE 11.3 km/h 12.9 km/h 93% 0 mm
08:51 17.9 °C 16.7 °C 1015.5 hPa SE 8 km/h 14.5 km/h 93% 0 mm
08:56 17.9 °C 16.7 °C 1015.5 hPa ESE 8 km/h 16.1 km/h 93% 0 mm
09:01 17.9 °C 16.7 °C 1015.5 hPa SE 9.7 km/h 17.7 km/h 93% 0 mm
09:06 17.9 °C 16.7 °C 1015.5 hPa SE 11.3 km/h 16.1 km/h 93% 0 mm
09:11 17.9 °C 16.8 °C 1015.5 hPa SE 14.5 km/h 16.1 km/h 93% 0 mm
09:16 17.9 °C 16.8 °C 1015.5 hPa SSE 11.3 km/h 12.9 km/h 93% 0 mm
09:21 17.9 °C 16.8 °C 1015.5 hPa SE 19.3 km/h 19.3 km/h 93% 0 mm
09:26 17.9 °C 16.8 °C 1015.5 hPa SE 12.9 km/h 16.1 km/h 93% 0 mm
09:31 18 °C 16.8 °C 1015.5 hPa SSE 12.9 km/h 17.7 km/h 93% 0 mm
09:36 18.1 °C 16.9 °C 1015.5 hPa SE 14.5 km/h 19.3 km/h 93% 0 mm
09:41 18.1 °C 16.9 °C 1015.5 hPa ESE 14.5 km/h 16.1 km/h 93% 0 mm
09:46 18.1 °C 16.9 °C 1015.5 hPa SE 8 km/h 14.5 km/h 93% 0 mm
09:51 18.1 °C 16.9 °C 1015.5 hPa SSE 12.9 km/h 14.5 km/h 93% 0 mm
09:56 18.1 °C 16.9 °C 1015.5 hPa SE 12.9 km/h 16.1 km/h 93% 0 mm
10:01 18.1 °C 16.9 °C 1015.5 hPa SE 8 km/h 12.9 km/h 93% 0 mm
10:07 18.1 °C 16.9 °C 1015.5 hPa SSE 12.9 km/h 17.7 km/h 93% 0 mm
10:12 18.1 °C 16.9 °C 1015.5 hPa SSW 8 km/h 14.5 km/h 93% 0 mm
10:17 18.1 °C 16.9 °C 1015.5 hPa SSW 11.3 km/h 12.9 km/h 93% 0 mm
10:22 18.2 °C 17 °C 1015.5 hPa SE 8 km/h 8 km/h 93% 0 mm
10:27 18.2 °C 17 °C 1015.5 hPa SE 8 km/h 16.1 km/h 93% 0 mm
10:32 18.2 °C 17 °C 1015.5 hPa SSE 11.3 km/h 12.9 km/h 93% 0 mm
10:37 18.2 °C 17 °C 1015.5 hPa SE 11.3 km/h 16.1 km/h 93% 0 mm
10:42 18.2 °C 17.1 °C 1015.5 hPa SE 11.3 km/h 19.3 km/h 93% 0 mm
10:47 18.3 °C 17.1 °C 1015.5 hPa SE 6.4 km/h 12.9 km/h 93% 0 mm
10:52 18.3 °C 17.2 °C 1015.5 hPa SE 11.3 km/h 12.9 km/h 93% 0 mm
10:57 18.4 °C 17.3 °C 1015.5 hPa SE 12.9 km/h 12.9 km/h 93% 0 mm
11:02 18.4 °C 17.3 °C 1015.5 hPa SE 9.7 km/h 16.1 km/h 93% 0 mm
11:07 18.4 °C 17.3 °C 1015.5 hPa SSE 12.9 km/h 19.3 km/h 93% 2.03 mm
11:12 18.6 °C 17.4 °C 1015.1 hPa SSE 9.7 km/h 14.5 km/h 93% 2.03 mm
11:17 18.7 °C 17.5 °C 1015.1 hPa SE 6.4 km/h 14.5 km/h 93% 1.27 mm
11:22 18.8 °C 17.6 °C 1015.1 hPa SSE 8 km/h 14.5 km/h 93% 1.02 mm
11:27 18.8 °C 17.7 °C 1015.1 hPa ESE 6.4 km/h 19.3 km/h 93% 0 mm
11:32 18.8 °C 17.7 °C 1015.1 hPa SE 11.3 km/h 16.1 km/h 93% 0 mm
11:37 18.8 °C 17.7 °C 1015.1 hPa SE 6.4 km/h 12.9 km/h 93% 0 mm
11:42 18.8 °C 17.7 °C 1015.1 hPa SE 4.8 km/h 9.7 km/h 93% 0 mm
11:47 18.9 °C 17.7 °C 1015.1 hPa SE 6.4 km/h 9.7 km/h 93% 0 mm
11:52 18.9 °C 17.7 °C 1015.1 hPa ESE 8 km/h 12.9 km/h 93% 0 mm
11:57 18.9 °C 17.8 °C 1015.1 hPa SSE 6.4 km/h 8 km/h 93% 0 mm
12:02 18.9 °C 17.8 °C 1015.1 hPa SE 9.7 km/h 11.3 km/h 93% 0 mm
12:07 18.9 °C 17.8 °C 1015.1 hPa SE 8 km/h 11.3 km/h 93% 0 mm
12:13 19 °C 17.8 °C 1015.1 hPa SE 8 km/h 16.1 km/h 93% 0 mm
12:18 19 °C 17.8 °C 1014.8 hPa SE 8 km/h 16.1 km/h 93% 0 mm
12:23 19.1 °C 17.9 °C 1014.8 hPa SSE 6.4 km/h 14.5 km/h 93% 0 mm
12:28 19.3 °C 18.1 °C 1014.8 hPa South 11.3 km/h 12.9 km/h 93% 0 mm
12:33 19.3 °C 18.2 °C 1014.8 hPa SE 8 km/h 12.9 km/h 93% 0 mm
12:38 19.3 °C 18.2 °C 1014.8 hPa SSE 8 km/h 11.3 km/h 93% 0 mm
12:43 19.4 °C 18.2 °C 1014.8 hPa South 6.4 km/h 11.3 km/h 93% 0 mm
12:48 19.4 °C 18.2 °C 1014.8 hPa SE 11.3 km/h 11.3 km/h 93% 0 mm
12:53 19.3 °C 18.1 °C 1014.8 hPa SE 6.4 km/h 11.3 km/h 93% 0 mm
12:58 19.3 °C 18.1 °C 1014.8 hPa SE 11.3 km/h 11.3 km/h 93% 0 mm
13:03 19.2 °C 18.1 °C 1014.8 hPa South 3.2 km/h 8 km/h 93% 0 mm
13:08 19.2 °C 18 °C 1014.4 hPa SSE 4.8 km/h 9.7 km/h 93% 0 mm
13:14 19.1 °C 17.9 °C 1014.4 hPa South 6.4 km/h 11.3 km/h 93% 4.57 mm
13:18 19.1 °C 17.9 °C 1014.4 hPa SE 9.7 km/h 9.7 km/h 93% 9.14 mm
13:24 19 °C 17.8 °C 1014.4 hPa SSE 9.7 km/h 12.9 km/h 93% 7.87 mm
13:28 18.9 °C 17.7 °C 1014.1 hPa SE 16.1 km/h 17.7 km/h 93% 26.16 mm
13:33 18.9 °C 17.8 °C 1014.1 hPa SE 11.3 km/h 17.7 km/h 93% 15.49 mm
13:39 18.9 °C 17.7 °C 1014.1 hPa SE 8 km/h 11.3 km/h 93% 13.46 mm
13:44 18.9 °C 17.8 °C 1014.1 hPa SE 8 km/h 12.9 km/h 93% 4.06 mm
13:49 19 °C 17.8 °C 1014.1 hPa SE 4.8 km/h 11.3 km/h 93% 1.78 mm
13:54 19.2 °C 18.1 °C 1014.1 hPa SE 11.3 km/h 11.3 km/h 93% 1.02 mm
13:59 19.4 °C 18.2 °C 1014.1 hPa ESE 11.3 km/h 12.9 km/h 93% 0 mm
14:04 19.7 °C 18.6 °C 1014.1 hPa ESE 6.4 km/h 11.3 km/h 93% 0 mm
14:09 19.8 °C 18.4 °C 1014.1 hPa SSE 11.3 km/h 14.5 km/h 92% 0 mm
14:14 19.9 °C 18.7 °C 1014.1 hPa SE 11.3 km/h 12.9 km/h 93% 0 mm
14:19 19.9 °C 18.6 °C 1014.1 hPa SE 9.7 km/h 12.9 km/h 92% 0 mm
14:25 20.1 °C 18.7 °C 1013.8 hPa ENE 8 km/h 11.3 km/h 92% 0 mm
14:30 20.1 °C 18.8 °C 1013.8 hPa SE 3.2 km/h 12.9 km/h 92% 0 mm
14:35 20.2 °C 18.8 °C 1013.8 hPa ESE 4.8 km/h 11.3 km/h 92% 0 mm
14:40 19.9 °C 18.6 °C 1013.8 hPa ESE 8 km/h 9.7 km/h 92% 0 mm
14:45 19.8 °C 18.5 °C 1013.8 hPa ENE 4.8 km/h 8 km/h 92% 0 mm
14:50 19.7 °C 18.3 °C 1013.8 hPa SE 6.4 km/h 8 km/h 92% 0 mm
14:55 19.8 °C 18.4 °C 1013.8 hPa SSE 8 km/h 11.3 km/h 92% 0 mm
15:00 19.8 °C 18.5 °C 1013.8 hPa East 4.8 km/h 12.9 km/h 92% 0 mm
15:05 19.8 °C 18.4 °C 1013.4 hPa SE 6.4 km/h 11.3 km/h 92% 0 mm
15:10 19.8 °C 18.5 °C 1013.4 hPa East 6.4 km/h 9.7 km/h 92% 0 mm
15:15 19.9 °C 18.6 °C 1013.4 hPa ESE 6.4 km/h 9.7 km/h 92% 0 mm
15:21 19.8 °C 18.5 °C 1013.4 hPa ESE 6.4 km/h 8 km/h 92% 0 mm
15:26 19.9 °C 18.6 °C 1013.4 hPa East 4.8 km/h 6.4 km/h 92% 0 mm
15:31 19.8 °C 18.5 °C 1013.4 hPa East 3.2 km/h 6.4 km/h 92% 0 mm
15:36 19.9 °C 18.6 °C 1013.1 hPa East 3.2 km/h 4.8 km/h 92% 0 mm
15:41 19.9 °C 18.6 °C 1013.1 hPa ESE 3.2 km/h 4.8 km/h 92% 0 mm
15:46 20.1 °C 18.7 °C 1013.1 hPa ENE 4.8 km/h 6.4 km/h 92% 0 mm
15:51 20.1 °C 18.8 °C 1013.1 hPa East 4.8 km/h 6.4 km/h 92% 0 mm
15:56 20.3 °C 19 °C 1013.1 hPa Calm   4.8 km/h 92% 0 mm
16:01 20.5 °C 19 °C 1013.1 hPa Calm   4.8 km/h 91% 0 mm
16:06 20.8 °C 19.3 °C 1013.1 hPa Calm   4.8 km/h 91% 0 mm
16:11 21 °C 19.3 °C 1013.1 hPa NNW 3.2 km/h 4.8 km/h 90% 0 mm
16:16 20.9 °C 19.1 °C 1013.1 hPa NW 8 km/h 8 km/h 89% 0 mm
16:21 20.4 °C 18.7 °C 1013.1 hPa NW 9.7 km/h 16.1 km/h 90% 0 mm
16:26 19.9 °C 18.3 °C 1013.1 hPa NNW 9.7 km/h 14.5 km/h 90% 0 mm
16:31 19.6 °C 18.1 °C 1012.8 hPa NW 9.7 km/h 16.1 km/h 91% 0 mm
16:36 19.3 °C 17.9 °C 1013.1 hPa NNW 6.4 km/h 11.3 km/h 92% 0 mm
16:42 19.1 °C 17.9 °C 1013.1 hPa NW 6.4 km/h 9.7 km/h 93% 4.06 mm
16:47 19 °C 17.8 °C 1012.8 hPa North 4.8 km/h 9.7 km/h 93% 8.38 mm
16:52 19.1 °C 17.9 °C 1012.8 hPa NNW 4.8 km/h 9.7 km/h 93% 3.3 mm
16:57 19.2 °C 18.1 °C 1012.8 hPa NNE 8 km/h 9.7 km/h 93% 2.79 mm
17:02 19.4 °C 18.2 °C 1012.8 hPa NNW 4.8 km/h 6.4 km/h 93% 1.52 mm
17:07 19.4 °C 18.2 °C 1012.8 hPa North 3.2 km/h 6.4 km/h 93% 1.02 mm
17:12 19.4 °C 18.2 °C 1012.8 hPa NNW 4.8 km/h 9.7 km/h 93% 0 mm
17:17 19.5 °C 18.3 °C 1012.8 hPa NW 6.4 km/h 11.3 km/h 93% 0 mm
17:22 19.6 °C 18.4 °C 1012.8 hPa NW 6.4 km/h 11.3 km/h 93% 0 mm
17:27 19.7 °C 18.5 °C 1012.8 hPa NNW 4.8 km/h 14.5 km/h 93% 0 mm
17:32 19.7 °C 18.6 °C 1013.1 hPa NNW 4.8 km/h 9.7 km/h 93% 0 mm
17:37 19.8 °C 18.7 °C 1013.1 hPa NNW 4.8 km/h 8 km/h 93% 0 mm
17:43 19.7 °C 18.6 °C 1012.8 hPa WNW 8 km/h 11.3 km/h 93% 0 mm
17:48 19.7 °C 18.5 °C 1012.8 hPa NW 4.8 km/h 12.9 km/h 93% 0 mm
17:53 19.7 °C 18.5 °C 1012.8 hPa NNW 4.8 km/h 8 km/h 93% 0 mm
17:58 19.7 °C 18.6 °C 1012.8 hPa NW 9.7 km/h 9.7 km/h 93% 0 mm
18:03 19.9 °C 18.8 °C 1012.8 hPa NNW 9.7 km/h 12.9 km/h 93% 0 mm
18:08 20.2 °C 18.8 °C 1012.8 hPa WNW 6.4 km/h 11.3 km/h 92% 0 mm
18:13 20.4 °C 19.1 °C 1012.8 hPa NW 8 km/h 12.9 km/h 92% 0 mm
18:18 20.2 °C 18.9 °C 1012.8 hPa North 9.7 km/h 9.7 km/h 92% 0 mm
18:23 20.2 °C 18.8 °C 1012.8 hPa NW 12.9 km/h 14.5 km/h 92% 0 mm
18:28 20.1 °C 18.8 °C 1012.8 hPa North 9.7 km/h 11.3 km/h 92% 0 mm
18:33 20.2 °C 18.8 °C 1012.8 hPa NNW 4.8 km/h 9.7 km/h 92% 0 mm
18:38 20.3 °C 18.9 °C 1012.8 hPa NW 3.2 km/h 11.3 km/h 92% 0 mm
18:43 20.3 °C 19 °C 1012.8 hPa North 8 km/h 9.7 km/h 92% 0 mm
18:48 20.3 °C 18.8 °C 1012.8 hPa NW 17.7 km/h 17.7 km/h 91% 0 mm
18:53 20.2 °C 18.7 °C 1012.8 hPa NNW 14.5 km/h 14.5 km/h 91% 0 mm
18:58 20.1 °C 18.6 °C 1012.8 hPa NW 11.3 km/h 14.5 km/h 91% 0 mm
19:03 19.9 °C 18.4 °C 1013.1 hPa NNW 9.7 km/h 11.3 km/h 91% 0 mm
19:08 19.8 °C 18.5 °C 1013.1 hPa NNW 9.7 km/h 11.3 km/h 92% 0 mm
19:13 19.8 °C 18.5 °C 1013.1 hPa NW 6.4 km/h 11.3 km/h 92% 0 mm
19:18 19.7 °C 18.2 °C 1013.1 hPa NNW 9.7 km/h 16.1 km/h 91% 0 mm
19:23 19.6 °C 18.3 °C 1013.1 hPa NNW 4.8 km/h 14.5 km/h 92% 0 mm
19:28 19.5 °C 18.2 °C 1013.1 hPa North 9.7 km/h 11.3 km/h 92% 0 mm
19:33 19.3 °C 18 °C 1013.1 hPa NW 9.7 km/h 14.5 km/h 92% 0 mm
19:38 19.2 °C 17.9 °C 1013.1 hPa NW 8 km/h 12.9 km/h 92% 0 mm
19:43 19.1 °C 17.7 °C 1013.1 hPa WNW 4.8 km/h 6.4 km/h 92% 0 mm
19:48 19 °C 17.7 °C 1013.1 hPa NW 4.8 km/h 8 km/h 92% 0 mm
19:53 18.9 °C 17.6 °C 1013.1 hPa NW 6.4 km/h 9.7 km/h 92% 0 mm
19:58 18.8 °C 17.5 °C 1013.1 hPa WNW 3.2 km/h 6.4 km/h 92% 0 mm
20:03 18.8 °C 17.6 °C 1013.1 hPa WNW 4.8 km/h 6.4 km/h 93% 0 mm
20:08 18.7 °C 17.6 °C 1013.4 hPa NW 8 km/h 9.7 km/h 93% 0 mm
20:13 18.6 °C 17.4 °C 1013.4 hPa NW 11.3 km/h 11.3 km/h 93% 0 mm
20:18 18.6 °C 17.4 °C 1013.4 hPa NW 16.1 km/h 16.1 km/h 93% 0 mm
20:23 18.4 °C 17.3 °C 1013.4 hPa NNW 12.9 km/h 14.5 km/h 93% 0 mm
20:28 18.4 °C 17.2 °C 1013.8 hPa NNW 11.3 km/h 12.9 km/h 93% 0 mm
20:33 18.3 °C 17.2 °C 1013.8 hPa NW 6.4 km/h 12.9 km/h 93% 0 mm
20:38 18.3 °C 17.1 °C 1013.8 hPa NW 11.3 km/h 16.1 km/h 93% 0 mm
20:43 18.2 °C 17 °C 1013.8 hPa NW 6.4 km/h 11.3 km/h 93% 0 mm
20:48 18.1 °C 16.9 °C 1013.8 hPa NW 6.4 km/h 11.3 km/h 93% 0 mm
20:53 18.1 °C 16.9 °C 1013.8 hPa NW 4.8 km/h 8 km/h 93% 0 mm
20:58 18 °C 16.8 °C 1013.8 hPa WNW 3.2 km/h 6.4 km/h 93% 0 mm
21:03 17.9 °C 16.7 °C 1014.1 hPa NW 6.4 km/h 12.9 km/h 93% 0 mm
21:08 17.8 °C 16.6 °C 1014.1 hPa NW 4.8 km/h 11.3 km/h 93% 0 mm
21:13 17.7 °C 16.5 °C 1014.1 hPa NW 6.4 km/h 9.7 km/h 93% 0 mm
21:18 17.5 °C 16.3 °C 1014.1 hPa WNW 3.2 km/h 9.7 km/h 93% 0 mm
21:24 17.4 °C 16.2 °C 1014.1 hPa NW 12.9 km/h 12.9 km/h 93% 0 mm
21:29 17.2 °C 16.1 °C 1014.1 hPa NNW 11.3 km/h 11.3 km/h 93% 0 mm
21:34 17.2 °C 16 °C 1014.1 hPa NW 6.4 km/h 9.7 km/h 93% 0 mm
21:39 17.1 °C 16 °C 1014.1 hPa NW 8 km/h 11.3 km/h 93% 0 mm
21:44 17.1 °C 15.9 °C 1014.1 hPa WNW 8 km/h 11.3 km/h 93% 0 mm
21:49 17.1 °C 15.9 °C 1014.1 hPa WNW 3.2 km/h 6.4 km/h 93% 0 mm
21:54 17 °C 15.8 °C 1014.1 hPa NW 3.2 km/h 8 km/h 93% 0 mm
21:59 16.9 °C 15.8 °C 1014.1 hPa NNW 3.2 km/h 8 km/h 93% 0 mm
22:04 16.9 °C 15.7 °C 1014.1 hPa NW 6.4 km/h 6.4 km/h 93% 0 mm
22:09 16.8 °C 15.7 °C 1014.1 hPa NW 9.7 km/h 9.7 km/h 93% 0 mm
22:14 16.8 °C 15.7 °C 1014.1 hPa NNW 3.2 km/h 8 km/h 93% 0 mm
22:19 16.8 °C 15.7 °C 1014.1 hPa NNW 3.2 km/h 9.7 km/h 93% 0 mm
22:24 16.8 °C 15.7 °C 1014.1 hPa WNW 6.4 km/h 8 km/h 93% 0 mm
22:29 16.7 °C 15.6 °C 1014.1 hPa WNW 3.2 km/h 6.4 km/h 93% 0 mm
22:34 16.6 °C 15.4 °C 1014.4 hPa NW 3.2 km/h 6.4 km/h 93% 0 mm
22:39 16.5 °C 15.4 °C 1014.1 hPa West 1.6 km/h 6.4 km/h 93% 0 mm
22:44 16.4 °C 15.3 °C 1014.1 hPa WNW 3.2 km/h 6.4 km/h 93% 0 mm
22:49 16.4 °C 15.4 °C 1014.1 hPa WNW 3.2 km/h 4.8 km/h 94% 0 mm
22:54 16.3 °C 15.3 °C 1014.1 hPa NW 1.6 km/h 4.8 km/h 94% 0 mm
23:00 16.2 °C 15.3 °C 1014.1 hPa WNW 1.6 km/h 3.2 km/h 94% 0 mm
23:05 16.2 °C 15.3 °C 1014.4 hPa NW 1.6 km/h 1.6 km/h 94% 0 mm
23:10 16.2 °C 15.3 °C 1014.4 hPa NW 1.6 km/h 3.2 km/h 94% 0 mm
23:15 16.2 °C 15.2 °C 1014.4 hPa NW 1.6 km/h 1.6 km/h 94% 0 mm
23:20 16.2 °C 15.2 °C 1014.1 hPa NW 1.6 km/h 1.6 km/h 94% 0 mm
23:25 16.2 °C 15.2 °C 1014.4 hPa Calm   3.2 km/h 94% 0 mm
23:30 16.2 °C 15.2 °C 1014.1 hPa NNW 1.6 km/h 4.8 km/h 94% 0 mm
23:35 16.2 °C 15.3 °C 1014.1 hPa WNW 3.2 km/h 3.2 km/h 94% 0 mm
23:36 16.2 °C 15.3 °C 1014.1 hPa NW 3.2 km/h 3.2 km/h 94% 0 mm
23:41 16.3 °C 15.3 °C 1014.1 hPa WNW 3.2 km/h 4.8 km/h 94% 0 mm
23:46 16.3 °C 15.4 °C 1014.1 hPa NW 1.6 km/h 4.8 km/h 94% 0 mm
23:51 16.4 °C 15.4 °C 1014.1 hPa NW 3.2 km/h 4.8 km/h 94% 0 mm
23:56 16.4 °C 15.5 °C 1014.1 hPa WNW 1.6 km/h 1.6 km/h 94% 0 mm
Compliments of Weather Underground